| time (UTC) | temp F | wind direction | speed knots | gust knots | rain 1hr in | rain 24hr in | rain mn in | humidity % | barometer mb |
| 20260906220036 | 89 | 198 | 3.5 | 7.8 | 0.00 | 0.00 | 0.00 | 31 | 1001.3 |
| 20260906214528 | 89 | 124 | 1.7 | 8.7 | 0.00 | 0.00 | 0.00 | 32 | 1001.6 |
| 20260906213025 | 89 | 190 | 0.0 | 5.2 | 0.00 | 0.00 | 0.00 | 32 | 1001.7 |
| 20260906211523 | 89 | 130 | 3.5 | 7.0 | 0.00 | 0.00 | 0.00 | 32 | 1002.1 |
| 20260906210020 | 88 | 144 | 1.7 | 9.6 | 0.00 | 0.00 | 0.00 | 32 | 1002.4 |
| 20260906204517 | 88 | 133 | 0.0 | 6.1 | 0.00 | 0.00 | 0.00 | 32 | 1002.5 |
| 20260906203015 | 88 | 33 | 1.7 | 8.7 | 0.00 | 0.00 | 0.00 | 33 | 1002.8 |
| 20260906201512 | 87 | 128 | 0.0 | 4.3 | 0.00 | 0.00 | 0.00 | 34 | 1002.9 |
| 20260906200011 | 87 | 126 | 0.9 | 5.2 | 0.00 | 0.00 | 0.00 | 35 | 1003.3 |
| 20260906194516 | 87 | 54 | 0.0 | 7.0 | 0.00 | 0.00 | 0.00 | 36 | 1003.5 |
| 20260906193006 | 85 | 134 | 3.5 | 5.2 | 0.00 | 0.00 | 0.00 | 36 | 1003.7 |
| 20260906191501 | 85 | 39 | 0.0 | 5.2 | 0.00 | 0.00 | 0.00 | 37 | 1004.0 |
| 20260906190059 | 85 | 52 | 0.9 | 5.2 | 0.00 | 0.00 | 0.00 | 36 | 1004.2 |
| 20260906184559 | 84 | 17 | 1.7 | 7.0 | 0.00 | 0.00 | 0.00 | 38 | 1004.5 |
| 20260906183052 | 83 | 184 | 0.0 | 4.3 | 0.00 | 0.00 | 0.00 | 37 | 1004.9 |
| 20260906181604 | 82 | 185 | 0.0 | 3.5 | 0.00 | 0.00 | 0.00 | 41 | 1005.1 |
| 20260906180049 | 82 | 186 | 0.0 | 3.5 | 0.00 | 0.00 | 0.00 | 42 | 1005.4 |
| 20260906174547 | 81 | 186 | 0.0 | 4.3 | 0.00 | 0.00 | 0.00 | 41 | 1005.7 |
| 20260906173044 | 80 | 186 | 0.0 | 1.7 | 0.00 | 0.00 | 0.00 | 45 | 1006.0 |
| 20260906171543 | 80 | 181 | 0.0 | 2.6 | 0.00 | 0.00 | 0.00 | 48 | 1006.3 |
| 20260906170041 | 79 | 175 | 0.0 | 4.3 | 0.00 | 0.00 | 0.00 | 48 | 1006.5 |
| 20260906164538 | 78 | 175 | 0.0 | 2.6 | 0.00 | 0.00 | 0.00 | 53 | 1006.7 |
| 20260906163040 | 75 | 174 | 0.0 | 3.5 | 0.00 | 0.00 | 0.00 | 55 | 1006.6 |
| 20260906161533 | 75 | 174 | 0.9 | 3.5 | 0.00 | 0.00 | 0.00 | 57 | 1006.5 |
| 20260906160031 | 74 | 175 | 0.0 | 0.9 | 0.00 | 0.00 | 0.00 | 60 | 1006.5 |
| 20260906154529 | 73 | 175 | 0.0 | 2.6 | 0.00 | 0.00 | 0.00 | 63 | 1006.6 |
| 20260906153031 | 72 | 175 | 0.9 | 3.5 | 0.00 | 0.00 | 0.00 | 65 | 1006.7 |
| 20260906151528 | 70 | 176 | 0.0 | 2.6 | 0.00 | 0.00 | 0.00 | 69 | 1006.8 |
| 20260906150031 | 69 | 175 | 0.0 | 4.3 | 0.00 | 0.00 | 0.00 | 71 | 1006.8 |
| 20260906144527 | 68 | 175 | 0.9 | 2.6 | 0.00 | 0.00 | 0.00 | 74 | 1006.7 |
| 20260906143026 | 67 | 175 | 0.0 | 1.7 | 0.00 | 0.00 | 0.00 | 76 | 1006.8 |
| 20260906141525 | 66 | 175 | 0.0 | 0.0 | 0.00 | 0.00 | 0.00 | 79 | 1006.7 |
| 20260906140025 | 64 | 175 | 0.0 | 0.0 | 0.00 | 0.00 | 0.00 | 82 | 1006.8 |
| 20260906134524 | 63 | 175 | 0.0 | 0.0 | 0.00 | 0.00 | 0.00 | 83 | 1006.8 |
| 20260906133030 | 63 | 175 | 0.0 | 0.0 | 0.00 | 0.00 | 0.00 | 84 | 1006.7 |
| 20260906131521 | 62 | 175 | 0.0 | 0.0 | 0.00 | 0.00 | 0.00 | 84 | 1006.5 |
| 20260906130026 | 62 | 175 | 0.0 | 0.0 | 0.00 | 0.00 | 0.00 | 84 | 1006.3 |
| 20260906124520 | 62 | 175 | 0.0 | 0.0 | 0.00 | 0.00 | 0.00 | 83 | 1006.2 |
| 20260906123026 | 62 | 175 | 0.0 | 0.0 | 0.00 | 0.00 | 0.00 | 82 | 1006.3 |
| 20260906121516 | 63 | 175 | 0.0 | 0.0 | 0.00 | 0.00 | 0.00 | 81 | 1006.3 |
| 20260906120014 | 63 | 175 | 0.0 | 0.0 | 0.00 | 0.00 | 0.00 | 79 | 1006.4 |
| 20260906114533 | 63 | 175 | 0.0 | 2.6 | 0.00 | 0.00 | 0.00 | 77 | 1006.3 |
| 20260906113013 | 63 | 175 | 0.0 | 0.0 | 0.00 | 0.00 | 0.00 | 76 | 1006.3 |
| 20260906111518 | 64 | 175 | 0.0 | 0.0 | 0.00 | 0.00 | 0.00 | 74 | 1006.3 |
| 20260906110009 | 65 | 175 | 0.0 | 0.0 | 0.00 | 0.00 | 0.00 | 72 | 1006.2 |
| 20260906104509 | 65 | 175 | 0.0 | 0.0 | 0.00 | 0.00 | 0.00 | 72 | 1006.0 |
| 20260906103003 | 65 | 175 | 0.0 | 0.9 | 0.00 | 0.00 | 0.00 | 71 | 1005.8 |
| 20260906101502 | 66 | 175 | 0.0 | 0.0 | 0.00 | 0.00 | 0.00 | 68 | 1005.8 |
| 20260906100001 | 66 | 175 | 0.0 | 4.3 | 0.00 | 0.00 | 0.00 | 65 | 1005.9 |
| 20260906094559 | 65 | 175 | 0.0 | 1.7 | 0.00 | 0.00 | 0.00 | 60 | 1006.2 |
| 20260906093055 | 66 | 175 | 0.0 | 0.0 | 0.00 | 0.00 | 0.00 | 57 | 1006.0 |
| 20260906091553 | 67 | 175 | 0.0 | 0.0 | 0.00 | 0.00 | 0.00 | 56 | 1005.9 |
| 20260906090051 | 68 | 175 | 0.0 | 0.0 | 0.00 | 0.00 | 0.00 | 55 | 1005.7 |
| 20260906084551 | 67 | 175 | 0.0 | 0.0 | 0.00 | 0.00 | 0.00 | 57 | 1005.5 |
| 20260906083049 | 68 | 175 | 0.0 | 0.0 | 0.00 | 0.00 | 0.00 | 57 | 1005.5 |
| 20260906081552 | 68 | 175 | 0.0 | 0.0 | 0.00 | 0.00 | 0.00 | 56 | 1005.7 |
| 20260906080044 | 68 | 175 | 0.0 | 0.0 | 0.00 | 0.00 | 0.00 | 55 | 1005.6 |
| 20260906074545 | 69 | 175 | 0.0 | 0.0 | 0.00 | 0.00 | 0.00 | 53 | 1005.5 |
| 20260906073042 | 71 | 175 | 0.0 | 0.0 | 0.00 | 0.00 | 0.00 | 50 | 1005.2 |
| 20260906071534 | 72 | 175 | 0.0 | 0.0 | 0.00 | 0.00 | 0.00 | 48 | 1005.0 |
| 20260906070032 | 72 | 175 | 0.0 | 0.0 | 0.00 | 0.00 | 0.00 | 47 | 1004.8 |
| 20260906064531 | 72 | 175 | 0.0 | 0.0 | 0.00 | 0.00 | 0.00 | 47 | 1005.0 |
| 20260906063028 | 73 | 175 | 0.0 | 0.0 | 0.00 | 0.00 | 0.00 | 45 | 1005.0 |
| 20260906061525 | 74 | 175 | 0.0 | 0.0 | 0.00 | 0.00 | 0.00 | 44 | 1005.3 |
| 20260906060022 | 73 | 175 | 0.0 | 0.0 | 0.00 | 0.00 | 0.00 | 44 | 1005.5 |
| 20260906054524 | 74 | 175 | 0.0 | 0.0 | 0.00 | 0.00 | 0.00 | 43 | 1005.4 |
| 20260906053030 | 75 | 175 | 0.0 | 0.0 | 0.00 | 0.00 | 0.00 | 41 | 1005.5 |
| 20260906051521 | 75 | 175 | 0.0 | 0.0 | 0.00 | 0.00 | 0.00 | 40 | 1005.7 |
| 20260906050021 | 75 | 175 | 0.0 | 0.0 | 0.00 | 0.00 | 0.00 | 39 | 1005.7 |
| 20260906044520 | 76 | 175 | 0.0 | 0.0 | 0.00 | 0.00 | 0.00 | 38 | 1006.0 |
| 20260906043019 | 76 | 175 | 0.0 | 3.5 | 0.00 | 0.00 | 0.00 | 38 | 1005.7 |
| 20260906041525 | 75 | 182 | 0.9 | 6.1 | 0.00 | 0.00 | 0.00 | 39 | 1005.7 |
| 20260906040026 | 76 | 344 | 0.0 | 0.0 | 0.00 | 0.00 | 0.00 | 36 | 1004.7 |
| 20260906034516 | 76 | 344 | 0.0 | 1.7 | 0.00 | 0.00 | 0.00 | 37 | 1004.6 |
| 20260906033017 | 76 | 329 | 0.0 | 0.0 | 0.00 | 0.00 | 0.00 | 38 | 1004.6 |
| 20260906031531 | 77 | 329 | 0.0 | 0.0 | 0.00 | 0.00 | 0.00 | 36 | 1004.4 |
| 20260906030016 | 78 | 329 | 0.0 | 0.0 | 0.00 | 0.00 | 0.00 | 35 | 1004.1 |
| 20260906024514 | 79 | 329 | 0.0 | 0.0 | 0.00 | 0.00 | 0.00 | 33 | 1003.8 |
| 20260906023013 | 81 | 329 | 0.0 | 0.0 | 0.00 | 0.00 | 0.00 | 31 | 1003.7 |
| 20260906021513 | 83 | 329 | 0.0 | 0.9 | 0.00 | 0.00 | 0.00 | 29 | 1003.6 |
| 20260906020013 | 83 | 329 | 0.9 | 4.3 | 0.00 | 0.00 | 0.00 | 28 | 1003.4 |
| 20260906014517 | 84 | 331 | 0.0 | 4.3 | 0.00 | 0.00 | 0.00 | 27 | 1003.1 |
| 20260906013011 | 85 | 339 | 1.7 | 6.1 | 0.00 | 0.00 | 0.00 | 26 | 1002.8 |
| 20260906011511 | 86 | 311 | 3.5 | 9.6 | 0.00 | 0.00 | 0.00 | 24 | 1002.7 |
| 20260906010012 | 86 | 33 | 0.0 | 0.0 | 0.00 | 0.00 | 0.00 | 26 | 1002.5 |
| 20260906004511 | 88 | 33 | 0.0 | 0.0 | 0.00 | 0.00 | 0.00 | 24 | 1002.5 |
| 20260906003010 | 89 | 33 | 0.0 | 0.0 | 0.00 | 0.00 | 0.00 | 23 | 1002.5 |
| 20260906001509 | 89 | 33 | 0.0 | 3.5 | 0.00 | 0.00 | 0.00 | 21 | 1002.4 |
| 20260906000009 | 90 | 33 | 0.0 | 3.5 | 0.00 | 0.00 | 0.00 | 21 | 1002.3 |
| 20260905234508 | 90 | 36 | 0.9 | 5.2 | 0.00 | 0.00 | 0.00 | 21 | 1002.3 |
| 20260905233008 | 90 | 40 | 0.0 | 4.3 | 0.00 | 0.00 | 0.00 | 21 | 1002.3 |
| 20260905231508 | 91 | 40 | 0.0 | 0.9 | 0.00 | 0.00 | 0.00 | 20 | 1002.3 |
| 20260905230007 | 90 | 40 | 0.0 | 5.2 | 0.00 | 0.00 | 0.00 | 21 | 1002.2 |
| 20260905224507 | 90 | 50 | 0.0 | 2.6 | 0.00 | 0.00 | 0.00 | 21 | 1002.2 |
| 20260905223005 | 91 | 338 | 0.0 | 2.6 | 0.00 | 0.00 | 0.00 | 21 | 1002.2 |
| 20260905221504 | 91 | 338 | 0.0 | 6.1 | 0.00 | 0.00 | 0.00 | 21 | 1002.3 |